[TLELIST] Archives

 

[list_settings.list_name] Current TLEs

July 30th 2022 PST

HST 1 20580U 90037B 22210.78943584 .00001022 00000-0 49330-4 0 9997 2 20580 28.4691 248.2497 0002781 128.4080 27.6089 15.10716904572622 ISS (ZARYA) 1 25544U 98067A 22211.28125620 .00005323 00000-0 10058-3 0 9994 2 25544 51.6429 123.1259 0005136 65.1912 86.8291 15.50172911351860 CXO 1 25867U 99040B 22213.00536383 .00000636 00000-0 00000+0 0 9992 2 25867 44.0973 231.5039 8866484 236.3926 0.5729 0.37813541 23128 ____________________________________________________________________ These 2-Line ...Continue Reading

[list_settings.list_name] Current TLEs

July 29th 2022 PST

HST 1 20580U 90037B 22210.17442374 .00001093 00000-0 53533-4 0 9999 2 20580 28.4692 252.3259 0002798 122.2352 282.3517 15.10716054572797 ISS (ZARYA) 1 25544U 98067A 22210.36676223 .00005118 00000-0 97055-4 0 9997 2 25544 51.6425 127.6578 0005042 61.9259 23.2945 15.50161783351724 CXO 1 25867U 99040B 22210.35930758 .00000556 00000-0 00000-0 0 9993 2 25867 44.1829 231.7550 8865031 236.2213 0.4021 0.37808669 11962 ____________________________________________________________________ These 2-Line ...Continue Reading

[list_settings.list_name] Current TLEs

July 28th 2022 PST

HST 1 20580U 90037B 22208.87538418 .00001191 00000-0 59285-4 0 9997 2 20580 28.4693 260.9356 0002815 109.1858 56.4570 15.10713627572338 ISS (ZARYA) 1 25544U 98067A 22209.28094632 .00006188 00000-0 11570-3 0 9999 2 25544 51.6432 133.0378 0005185 57.5015 84.2534 15.50151296351550 CXO 1 25867U 99040B 22210.35930758 .00000556 00000-0 00000-0 0 9993 2 25867 44.1829 231.7550 8865031 236.2213 0.4021 0.37808669 11962 ____________________________________________________________________ These 2-Line ...Continue Reading

[list_settings.list_name] Current TLEs

July 27th 2022 PST

HST 1 20580U 90037B 22207.61299231 .00001400 00000-0 71578-4 0 9997 2 20580 28.4694 269.3023 0002824 97.0460 29.3704 15.10711316572147 ISS (ZARYA) 1 25544U 98067A 22208.31450235 .00005341 00000-0 10102-3 0 9997 2 25544 51.6422 137.8280 0005153 53.0207 91.9097 15.50138246351405 CXO 1 25867U 99040B 22210.35900079 .00000555 00000-0 00000-0 0 9995 2 25867 44.1830 231.7549 8865022 236.2211 0.3607 0.37809415 11958 ____________________________________________________________________ These 2-Line ...Continue Reading

[list_settings.list_name] Current TLEs

July 26th 2022 PST

HST 1 20580U 90037B 22206.89414865 .00001512 00000-0 78184-4 0 9992 2 20580 28.4695 274.0664 0002822 89.9281 79.2545 15.10709587572033 ISS (ZARYA) 1 25544U 98067A 22207.27417480 .00005530 00000-0 10434-3 0 9994 2 25544 51.6425 142.9836 0004820 50.8958 44.6813 15.50129384351246 CXO 1 25867U 99040B 22210.35897401 .00000555 00000-0 00000+0 0 9998 2 25867 44.1830 231.7549 8865024 236.2212 0.3569 0.37809226 23119 ____________________________________________________________________ These 2-Line ...Continue Reading

[list_settings.list_name] Current TLEs

July 25th 2022 PST

HST 1 20580U 90037B 22205.90033005 .00001696 00000-0 89034-4 0 9995 2 20580 28.4697 280.6530 0002827 80.1559 73.3664 15.10707119571884 ISS (ZARYA) 1 25544U 98067A 22206.36826715 .00008538 00000-0 15673-3 0 9999 2 25544 51.6427 147.4701 0004955 48.1956 28.6743 15.50120579351102 CXO 1 25867U 99040B 22207.71422244 .00000413 00000-0 00000-0 0 9997 2 25867 44.2496 231.9676 8862858 236.0753 0.3602 0.37806654 11950 ____________________________________________________________________ These 2-Line ...Continue Reading

[list_settings.list_name] Current TLEs

July 24th 2022 PST

HST 1 20580U 90037B 22204.64370257 .00002103 00000-0 11298-3 0 9998 2 20580 28.4703 288.9814 0002868 67.7580 77.9821 15.10705185571693 ISS (ZARYA) 1 25544U 98067A 22203.46960946 .00003068 00000-0 61583-4 0 9997 2 25544 51.6415 161.8339 0005168 35.9781 54.7009 15.50067047350657 CXO 1 25867U 99040B 22205.06909626 .00000258 00000-0 00000-0 0 9994 2 25867 44.3149 232.1769 8860515 235.9302 0.3073 0.37806956 11933 ____________________________________________________________________ These 2-Line ...Continue Reading

[list_settings.list_name] Current TLEs

July 23rd 2022 PST

HST 1 20580U 90037B 22203.64634917 .00002392 00000-0 13002-3 0 9998 2 20580 28.4704 295.5908 0002844 58.2391 52.5987 15.10701744571544 ISS (ZARYA) 1 25544U 98067A 22203.46960946 .00003068 00000-0 61583-4 0 9997 2 25544 51.6415 161.8339 0005168 35.9781 54.7009 15.50067047350657 CXO 1 25867U 99040B 22205.06909626 .00000258 00000-0 00000-0 0 9994 2 25867 44.3149 232.1769 8860515 235.9302 0.3073 0.37806956 11933 ____________________________________________________________________ These 2-Line ...Continue Reading

[list_settings.list_name] Current TLEs

July 22nd 2022 PST

HST 1 20580U 90037B 22202.99529397 .00002486 00000-0 13552-3 0 9994 2 20580 28.4705 299.9054 0002821 51.6521 111.3836 15.10699170571717 ISS (ZARYA) 1 25544U 98067A 22203.46960946 .00003068 00000-0 61583-4 0 9997 2 25544 51.6415 161.8339 0005168 35.9781 54.7009 15.50067047350657 CXO 1 25867U 99040B 22205.06909626 .00000258 00000-0 00000-0 0 9994 2 25867 44.3149 232.1769 8860515 235.9302 0.3073 0.37806956 11933 ____________________________________________________________________ These 2-Line ...Continue Reading

[list_settings.list_name] Current TLEs

July 21st 2022 PST

HST 1 20580U 90037B 22201.73316431 .00002614 00000-0 14313-3 0 9997 2 20580 28.4707 308.2698 0002774 39.3903 85.9247 15.10693652571251 ISS (ZARYA) 1 25544U 98067A 22202.19774306 .00008144 00000-0 15021-3 0 9994 2 25544 51.6421 168.1323 0005024 33.7127 154.9750 15.50056906350454 CXO 1 25867U 99040B 22202.42558882 .00000170 00000-0 00000-0 0 9998 2 25867 44.3902 232.3994 8856968 235.7764 0.4681 0.37807764 11933 ____________________________________________________________________ These 2-Line ...Continue Reading
  • This mailing list is a public mailing list - anyone may join or leave, at any time.
  • This mailing list is announce-only.

International Space Station (ISS) / Hubble Space Telescope (HST) / Chandra X-Ray Observatory Orbital Data via EMAIL

Privacy Policy:

Private list